Location: Tyler Bend Campground
(35.9875°N, 92.7606°W)
Time: 08:44:04
(UTC-05:00)

CZ-2C R/B - Visible Passes

Search period start: 16 April 2014 00:00
Search period end: 26 April 2014 00:00
Orbit: 670 x 787 km, 98.1° (Epoch: 16 April)

Date Brightness Start Highest point End Pass type
(mag) Time Alt. Az. Time Alt. Az. Time Alt. Az.
16 Apr 2.4 20:11:13 10° SSE 20:15:39 53° ENE 20:20:11 10° N visible
16 Apr 5.1 21:52:25 10° WSW 21:54:16 12° W 21:56:08 10° WNW visible
17 Apr 3.5 21:02:10 10° S 21:06:28 41° W 21:10:52 10° NNW visible
18 Apr 2.4 20:14:31 10° SSE 20:19:00 58° ENE 20:23:36 10° N visible
18 Apr 5.2 21:56:20 10° WSW 21:57:40 11° W 21:59:01 10° WNW visible
19 Apr 3.7 21:05:36 10° SSW 21:09:50 37° W 21:14:11 10° NNW visible
20 Apr 2.3 20:17:49 10° SSE 20:22:20 64° ENE 20:27:00 10° N visible
20 Apr 5.4 22:00:47 10° W 22:01:04 10° W 22:01:21 10° W visible
21 Apr 3.9 21:09:02 10° SSW 21:13:12 34° W 21:17:30 10° NNW visible
22 Apr 2.3 20:21:07 10° SSE 20:25:41 70° ENE 20:30:24 10° N visible
23 Apr 4.0 21:12:29 10° SSW 21:16:35 31° W 21:20:48 10° NW visible
24 Apr 2.3 20:24:25 10° SSE 20:29:02 77° ENE 20:33:48 10° N visible
25 Apr 4.2 21:15:56 10° SSW 21:19:57 29° W 21:24:06 10° NW visible
